owner,sensor,date,latitude,longitude,vertical_datum,wind_speed,wind_to_direction,wind_speed_of_gust,qcFlag 
ADCP,ioos:station:wmo:42361:1,2013-03-01T00:30:00Z,27.5500,-92.4900,122.0,8.2,346.0,99.0,'11111222,11111222,11144222' 
ADCP,ioos:station:wmo:42361:1,2013-03-01T01:30:00Z,27.5500,-92.4900,122.0,9.2,342.0,99.0,'11111222,11111222,11144222' 
ADCP,ioos:station:wmo:42361:1,2013-03-01T02:30:00Z,27.5500,-92.4900,122.0,10.0,341.0,99.0,'11111222,11111222,11144222' 
ADCP,ioos:station:wmo:42361:1,2013-03-01T03:30:00Z,27.5500,-92.4900,122.0,9.9,349.0,99.0,'11111222,11111222,11144222' 
ADCP,ioos:station:wmo:42361:1,2013-03-01T04:30:00Z,27.5500,-92.4900,122.0,10.1,353.0,99.0,'11111222,11111222,11144222' 
ADCP,ioos:station:wmo:42361:1,2013-03-01T05:30:00Z,27.5500,-92.4900,122.0,10.9,359.0,99.0,'11111222,11111222,11144222' 
ADCP,ioos:station:wmo:42361:1,2013-03-01T06:30:00Z,27.5500,-92.4900,122.0,11.1,1.0,99.0,'11111222,11111222,11144222' 
ADCP,ioos:station:wmo:42361:1,2013-03-01T07:30:00Z,27.5500,-92.4900,122.0,10.3,1.0,99.0,'11111222,11111222,11144222' 
ADCP,ioos:station:wmo:42361:1,2013-03-01T08:30:00Z,27.5500,-92.4900,122.0,10.0,356.0,99.0,'11111222,11111222,11144222' 
ADCP,ioos:station:wmo:42361:1,2013-03-01T09:30:00Z,27.5500,-92.4900,122.0,10.1,348.0,99.0,'11111222,11111222,11144222' 
ADCP,ioos:station:wmo:42361:1,2013-03-01T10:30:00Z,27.5500,-92.4900,122.0,11.2,339.0,99.0,'11111222,11111222,11144222' 
ADCP,ioos:station:wmo:42361:1,2013-03-01T11:30:00Z,27.5500,-92.4900,122.0,12.2,340.0,99.0,'11111222,11111222,11144222' 
ADCP,ioos:station:wmo:42361:1,2013-03-01T12:30:00Z,27.5500,-92.4900,122.0,11.9,346.0,99.0,'11111222,11111222,11144222' 
ADCP,ioos:station:wmo:42361:1,2013-03-01T13:30:00Z,27.5500,-92.4900,122.0,13.1,358.0,99.0,'11111222,11111222,11144222' 
ADCP,ioos:station:wmo:42361:1,2013-03-01T14:30:00Z,27.5500,-92.4900,122.0,12.8,352.0,99.0,'11111222,11111222,11144222' 
ADCP,ioos:station:wmo:42361:1,2013-03-01T15:30:00Z,27.5500,-92.4900,122.0,11.7,342.0,99.0,'11111222,11111222,11144222' 
ADCP,ioos:station:wmo:42361:1,2013-03-01T16:30:00Z,27.5500,-92.4900,122.0,12.9,335.0,99.0,'11111222,11111222,11144222' 
ADCP,ioos:station:wmo:42361:1,2013-03-01T17:30:00Z,27.5500,-92.4900,122.0,13.7,328.0,99.0,'11111222,11111222,11144222' 
ADCP,ioos:station:wmo:42361:1,2013-03-01T18:30:00Z,27.5500,-92.4900,122.0,14.5,327.0,99.0,'11111222,11111222,11144222' 
ADCP,ioos:station:wmo:42361:1,2013-03-01T19:30:00Z,27.5500,-92.4900,122.0,14.4,332.0,99.0,'11111222,11111222,11144222' 
ADCP,ioos:station:wmo:42361:1,2013-03-01T20:30:00Z,27.5500,-92.4900,122.0,12.9,339.0,99.0,'11111222,11111222,11144222' 
ADCP,ioos:station:wmo:42361:1,2013-03-01T21:30:00Z,27.5500,-92.4900,122.0,12.0,338.0,99.0,'11111222,11111222,11144222' 
ADCP,ioos:station:wmo:42361:1,2013-03-01T22:30:00Z,27.5500,-92.4900,122.0,10.9,336.0,99.0,'11111222,11111222,11144222' 
ADCP,ioos:station:wmo:42361:1,2013-03-01T23:30:00Z,27.5500,-92.4900,122.0,10.1,338.0,99.0,'11111222,11111222,11144222' 
ADCP,ioos:station:wmo:42361:1,2013-03-02T00:30:00Z,27.5500,-92.4900,122.0,9.5,337.0,99.0,'11111222,11111222,11144222' 
ADCP,ioos:station:wmo:42361:1,2013-03-02T01:30:00Z,27.5500,-92.4900,122.0,9.6,332.0,99.0,'11111222,11111222,11144222' 
ADCP,ioos:station:wmo:42361:1,2013-03-02T02:30:00Z,27.5500,-92.4900,122.0,7.9,337.0,99.0,'11111222,11111222,11144222' 
ADCP,ioos:station:wmo:42361:1,2013-03-02T03:30:00Z,27.5500,-92.4900,122.0,7.3,325.0,99.0,'11111222,11111222,11144222' 
ADCP,ioos:station:wmo:42361:1,2013-03-02T04:30:00Z,27.5500,-92.4900,122.0,6.9,343.0,99.0,'11111222,11111222,11144222' 
ADCP,ioos:station:wmo:42361:1,2013-03-02T05:30:00Z,27.5500,-92.4900,122.0,6.1,345.0,99.0,'11111222,11111222,11144222' 
ADCP,ioos:station:wmo:42361:1,2013-03-02T06:30:00Z,27.5500,-92.4900,122.0,6.2,340.0,99.0,'11111222,11111222,11144222' 
ADCP,ioos:station:wmo:42361:1,2013-03-02T07:30:00Z,27.5500,-92.4900,122.0,8.9,332.0,99.0,'11111222,11111222,11144222' 
ADCP,ioos:station:wmo:42361:1,2013-03-02T08:30:00Z,27.5500,-92.4900,122.0,9.5,331.0,99.0,'11111222,11111222,11144222' 
ADCP,ioos:station:wmo:42361:1,2013-03-02T09:30:00Z,27.5500,-92.4900,122.0,13.0,325.0,99.0,'11111222,11111222,11144222' 
ADCP,ioos:station:wmo:42361:1,2013-03-02T10:30:00Z,27.5500,-92.4900,122.0,11.8,305.0,99.0,'11111222,11111222,11144222' 
ADCP,ioos:station:wmo:42361:1,2013-03-02T11:30:00Z,27.5500,-92.4900,122.0,14.7,323.0,99.0,'11111222,11111222,11144222' 
ADCP,ioos:station:wmo:42361:1,2013-03-02T12:30:00Z,27.5500,-92.4900,122.0,12.2,328.0,99.0,'11111222,11111222,11144222' 
ADCP,ioos:station:wmo:42361:1,2013-03-02T13:30:00Z,27.5500,-92.4900,122.0,11.3,321.0,99.0,'11111222,11111222,11144222' 
ADCP,ioos:station:wmo:42361:1,2013-03-02T14:30:00Z,27.5500,-92.4900,122.0,12.1,326.0,99.0,'11111222,11111222,11144222' 
ADCP,ioos:station:wmo:42361:1,2013-03-02T15:30:00Z,27.5500,-92.4900,122.0,13.1,329.0,99.0,'11111222,11111222,11144222' 
ADCP,ioos:station:wmo:42361:1,2013-03-02T16:30:00Z,27.5500,-92.4900,122.0,14.0,322.0,99.0,'11111222,11111222,11144222' 
ADCP,ioos:station:wmo:42361:1,2013-03-02T17:30:00Z,27.5500,-92.4900,122.0,13.0,316.0,99.0,'11111222,11111222,11144222' 
ADCP,ioos:station:wmo:42361:1,2013-03-02T18:30:00Z,27.5500,-92.4900,122.0,15.1,319.0,99.0,'11111222,11111222,11144222' 
ADCP,ioos:station:wmo:42361:1,2013-03-02T19:30:00Z,27.5500,-92.4900,122.0,14.4,317.0,99.0,'11111222,11111222,11144222' 
ADCP,ioos:station:wmo:42361:1,2013-03-02T20:30:00Z,27.5500,-92.4900,122.0,13.8,319.0,99.0,'11111222,11111222,11144222' 
ADCP,ioos:station:wmo:42361:1,2013-03-02T21:30:00Z,27.5500,-92.4900,122.0,14.8,319.0,99.0,'11111222,11111222,11144222' 
ADCP,ioos:station:wmo:42361:1,2013-03-02T22:30:00Z,27.5500,-92.4900,122.0,16.3,325.0,99.0,'11111222,11111222,11144222' 
ADCP,ioos:station:wmo:42361:1,2013-03-02T23:30:00Z,27.5500,-92.4900,122.0,16.3,330.0,99.0,'11111222,11111222,11144222' 
ADCP,ioos:station:wmo:42361:1,2013-03-03T00:30:00Z,27.5500,-92.4900,122.0,15.0,333.0,99.0,'11111222,11111222,11144222' 
ADCP,ioos:station:wmo:42361:1,2013-03-03T01:30:00Z,27.5500,-92.4900,122.0,13.3,339.0,99.0,'11111222,11111222,11144222' 
ADCP,ioos:station:wmo:42361:1,2013-03-03T02:30:00Z,27.5500,-92.4900,122.0,13.0,348.0,99.0,'11111222,11111222,11144222' 
ADCP,ioos:station:wmo:42361:1,2013-03-03T03:30:00Z,27.5500,-92.4900,122.0,13.2,356.0,99.0,'11111222,11111222,11144222' 
ADCP,ioos:station:wmo:42361:1,2013-03-03T04:30:00Z,27.5500,-92.4900,122.0,12.0,358.0,99.0,'11111222,11111222,11144222' 
ADCP,ioos:station:wmo:42361:1,2013-03-03T05:30:00Z,27.5500,-92.4900,122.0,10.3,359.0,99.0,'11111222,11111222,11144222' 
ADCP,ioos:station:wmo:42361:1,2013-03-03T06:30:00Z,27.5500,-92.4900,122.0,9.1,3.0,99.0,'11111222,11111222,11144222' 
ADCP,ioos:station:wmo:42361:1,2013-03-03T07:30:00Z,27.5500,-92.4900,122.0,9.0,6.0,99.0,'11111222,11111222,11144222' 
ADCP,ioos:station:wmo:42361:1,2013-03-03T08:30:00Z,27.5500,-92.4900,122.0,8.9,3.0,99.0,'11111222,11111222,11144222' 
ADCP,ioos:station:wmo:42361:1,2013-03-03T09:30:00Z,27.5500,-92.4900,122.0,7.3,358.0,99.0,'11111222,11111222,11144222' 
ADCP,ioos:station:wmo:42361:1,2013-03-03T10:30:00Z,27.5500,-92.4900,122.0,6.5,347.0,99.0,'11111222,11111222,11144222' 
ADCP,ioos:station:wmo:42361:1,2013-03-03T11:30:00Z,27.5500,-92.4900,122.0,5.9,346.0,99.0,'11111222,11111222,11144222' 
ADCP,ioos:station:wmo:42361:1,2013-03-03T12:30:00Z,27.5500,-92.4900,122.0,5.9,352.0,99.0,'11111222,11111222,11144222' 
ADCP,ioos:station:wmo:42361:1,2013-03-03T13:30:00Z,27.5500,-92.4900,122.0,5.2,353.0,99.0,'11111222,11111222,11144222' 
ADCP,ioos:station:wmo:42361:1,2013-03-03T14:30:00Z,27.5500,-92.4900,122.0,4.3,346.0,99.0,'11111222,11111222,11144222' 
ADCP,ioos:station:wmo:42361:1,2013-03-03T15:30:00Z,27.5500,-92.4900,122.0,3.4,352.0,99.0,'11111222,11111222,11144222' 
ADCP,ioos:station:wmo:42361:1,2013-03-03T16:30:00Z,27.5500,-92.4900,122.0,3.1,345.0,99.0,'11111222,11111222,11144222' 
ADCP,ioos:station:wmo:42361:1,2013-03-03T17:30:00Z,27.5500,-92.4900,122.0,1.5,342.0,99.0,'11111222,11111222,11144222' 
ADCP,ioos:station:wmo:42361:1,2013-03-03T18:30:00Z,27.5500,-92.4900,122.0,1.1,339.0,99.0,'11111222,11111222,11144222' 
ADCP,ioos:station:wmo:42361:1,2013-03-04T21:30:00Z,27.5500,-92.4900,122.0,13.3,197.0,99.0,'11111222,11111222,11144222' 
ADCP,ioos:station:wmo:42361:1,2013-03-04T22:30:00Z,27.5500,-92.4900,122.0,13.7,197.0,99.0,'11111222,11111222,11144222' 
ADCP,ioos:station:wmo:42361:1,2013-03-04T23:30:00Z,27.5500,-92.4900,122.0,13.4,195.0,99.0,'11111222,11111222,11144222' 
ADCP,ioos:station:wmo:42361:1,2013-03-05T00:30:00Z,27.5500,-92.4900,122.0,12.4,194.0,99.0,'11111222,11111222,11144222' 
ADCP,ioos:station:wmo:42361:1,2013-03-05T01:30:00Z,27.5500,-92.4900,122.0,12.3,191.0,99.0,'11111222,11111222,11144222' 
ADCP,ioos:station:wmo:42361:1,2013-03-05T02:30:00Z,27.5500,-92.4900,122.0,11.9,192.0,99.0,'11111222,11111222,11144222' 
ADCP,ioos:station:wmo:42361:1,2013-03-05T03:30:00Z,27.5500,-92.4900,122.0,15.0,185.0,99.0,'11111222,11111222,11144222' 
ADCP,ioos:station:wmo:42361:1,2013-03-05T04:30:00Z,27.5500,-92.4900,122.0,15.7,184.0,99.0,'11111222,11111222,11144222' 
ADCP,ioos:station:wmo:42361:1,2013-03-05T05:30:00Z,27.5500,-92.4900,122.0,16.3,188.0,99.0,'11111222,11111222,11144222' 
ADCP,ioos:station:wmo:42361:1,2013-03-05T06:30:00Z,27.5500,-92.4900,122.0,16.9,190.0,99.0,'11111222,11111222,11144222' 
ADCP,ioos:station:wmo:42361:1,2013-03-05T07:30:00Z,27.5500,-92.4900,122.0,17.9,191.0,99.0,'11111222,11111222,11144222' 
ADCP,ioos:station:wmo:42361:1,2013-03-05T08:30:00Z,27.5500,-92.4900,122.0,17.2,197.0,99.0,'11111222,11111222,11144222' 
ADCP,ioos:station:wmo:42361:1,2013-03-05T09:30:00Z,27.5500,-92.4900,122.0,16.9,200.0,99.0,'11111222,11111222,11144222' 
ADCP,ioos:station:wmo:42361:1,2013-03-05T10:30:00Z,27.5500,-92.4900,122.0,16.2,200.0,99.0,'11111222,11111222,11144222' 
ADCP,ioos:station:wmo:42361:1,2013-03-05T11:30:00Z,27.5500,-92.4900,122.0,13.3,201.0,99.0,'11111222,11111222,11144222' 
ADCP,ioos:station:wmo:42361:1,2013-03-05T12:30:00Z,27.5500,-92.4900,122.0,11.8,203.0,99.0,'11111222,11111222,11144222' 
ADCP,ioos:station:wmo:42361:1,2013-03-05T13:30:00Z,27.5500,-92.4900,122.0,11.1,200.0,99.0,'11111222,11111222,11144222' 
ADCP,ioos:station:wmo:42361:1,2013-03-05T14:30:00Z,27.5500,-92.4900,122.0,11.2,200.0,99.0,'11111222,11111222,11144222' 
ADCP,ioos:station:wmo:42361:1,2013-03-05T15:30:00Z,27.5500,-92.4900,122.0,7.5,240.0,99.0,'11111222,11111222,11144222' 
ADCP,ioos:station:wmo:42361:1,2013-03-05T16:30:00Z,27.5500,-92.4900,122.0,4.8,276.0,99.0,'11111222,11111222,11144222' 
ADCP,ioos:station:wmo:42361:1,2013-03-05T17:30:00Z,27.5500,-92.4900,122.0,5.6,258.0,99.0,'11111222,11111222,11144222' 
ADCP,ioos:station:wmo:42361:1,2013-03-05T18:30:00Z,27.5500,-92.4900,122.0,5.4,256.0,99.0,'11111222,11111222,11144222' 
ADCP,ioos:station:wmo:42361:1,2013-03-05T19:30:00Z,27.5500,-92.4900,122.0,4.6,256.0,99.0,'11111222,11111222,11144222' 
ADCP,ioos:station:wmo:42361:1,2013-03-05T20:30:00Z,27.5500,-92.4900,122.0,3.6,280.0,99.0,'11111222,11111222,11144222' 
ADCP,ioos:station:wmo:42361:1,2013-03-05T21:30:00Z,27.5500,-92.4900,122.0,3.9,312.0,99.0,'11111222,11111222,11144222' 
ADCP,ioos:station:wmo:42361:1,2013-03-05T22:30:00Z,27.5500,-92.4900,122.0,9.1,349.0,99.0,'11111222,11111222,11144222' 
ADCP,ioos:station:wmo:42361:1,2013-03-05T23:30:00Z,27.5500,-92.4900,122.0,7.7,360.0,99.0,'11111222,11144222,11144222' 
ADCP,ioos:station:wmo:42361:1,2013-03-06T00:30:00Z,27.5500,-92.4900,122.0,7.2,356.0,99.0,'11111222,11111222,11144222' 
ADCP,ioos:station:wmo:42361:1,2013-03-06T01:30:00Z,27.5500,-92.4900,122.0,10.6,357.0,99.0,'11111222,11111222,11144222' 
ADCP,ioos:station:wmo:42361:1,2013-03-06T02:30:00Z,27.5500,-92.4900,122.0,11.9,360.0,99.0,'11111222,11144222,11144222' 
ADCP,ioos:station:wmo:42361:1,2013-03-06T03:30:00Z,27.5500,-92.4900,122.0,11.9,360.0,99.0,'11111222,11144222,11144222' 
ADCP,ioos:station:wmo:42361:1,2013-03-06T04:30:00Z,27.5500,-92.4900,122.0,11.5,3.0,99.0,'11111222,11111222,11144222' 
ADCP,ioos:station:wmo:42361:1,2013-03-06T05:30:00Z,27.5500,-92.4900,122.0,14.3,10.0,99.0,'11111222,11111222,11144222' 
ADCP,ioos:station:wmo:42361:1,2013-03-06T06:30:00Z,27.5500,-92.4900,122.0,15.2,11.0,99.0,'11111222,11111222,11144222' 
ADCP,ioos:station:wmo:42361:1,2013-03-06T07:30:00Z,27.5500,-92.4900,122.0,15.7,10.0,99.0,'11111222,11111222,11144222' 
ADCP,ioos:station:wmo:42361:1,2013-03-06T08:30:00Z,27.5500,-92.4900,122.0,16.9,12.0,99.0,'11111222,11111222,11144222' 
ADCP,ioos:station:wmo:42361:1,2013-03-06T09:30:00Z,27.5500,-92.4900,122.0,17.2,12.0,99.0,'11111222,11111222,11144222' 
ADCP,ioos:station:wmo:42361:1,2013-03-06T10:30:00Z,27.5500,-92.4900,122.0,15.3,18.0,99.0,'11111222,11111222,11144222' 
ADCP,ioos:station:wmo:42361:1,2013-03-06T11:30:00Z,27.5500,-92.4900,122.0,13.8,23.0,99.0,'11111222,11111222,11144222' 
ADCP,ioos:station:wmo:42361:1,2013-03-06T12:30:00Z,27.5500,-92.4900,122.0,13.4,27.0,99.0,'11111222,11111222,11144222' 
ADCP,ioos:station:wmo:42361:1,2013-03-06T13:30:00Z,27.5500,-92.4900,122.0,11.9,34.0,99.0,'11111222,11111222,11144222' 
ADCP,ioos:station:wmo:42361:1,2013-03-06T14:30:00Z,27.5500,-92.4900,122.0,10.9,40.0,99.0,'11111222,11111222,11144222' 
ADCP,ioos:station:wmo:42361:1,2013-03-06T15:30:00Z,27.5500,-92.4900,122.0,10.7,44.0,99.0,'11111222,11111222,11144222' 
ADCP,ioos:station:wmo:42361:1,2013-03-06T16:30:00Z,27.5500,-92.4900,122.0,10.1,41.0,99.0,'11111222,11111222,11144222' 
ADCP,ioos:station:wmo:42361:1,2013-03-06T17:30:00Z,27.5500,-92.4900,122.0,8.5,50.0,99.0,'11111222,11111222,11144222' 
ADCP,ioos:station:wmo:42361:1,2013-03-06T18:30:00Z,27.5500,-92.4900,122.0,7.7,50.0,99.0,'11111222,11111222,11144222' 
ADCP,ioos:station:wmo:42361:1,2013-03-06T19:30:00Z,27.5500,-92.4900,122.0,5.9,46.0,99.0,'11111222,11111222,11144222' 
ADCP,ioos:station:wmo:42361:1,2013-03-06T20:30:00Z,27.5500,-92.4900,122.0,5.7,38.0,99.0,'11111222,11111222,11144222' 
ADCP,ioos:station:wmo:42361:1,2013-03-06T21:30:00Z,27.5500,-92.4900,122.0,5.8,33.0,99.0,'11111222,11111222,11144222' 
ADCP,ioos:station:wmo:42361:1,2013-03-06T22:30:00Z,27.5500,-92.4900,122.0,5.9,29.0,99.0,'11111222,11111222,11144222' 
ADCP,ioos:station:wmo:42361:1,2013-03-06T23:30:00Z,27.5500,-92.4900,122.0,5.6,21.0,99.0,'11111222,11111222,11144222' 
ADCP,ioos:station:wmo:42361:1,2013-03-07T00:30:00Z,27.5500,-92.4900,122.0,4.5,19.0,99.0,'11111222,11111222,11144222' 
ADCP,ioos:station:wmo:42361:1,2013-03-07T01:30:00Z,27.5500,-92.4900,122.0,4.1,21.0,99.0,'11111222,11111222,11144222' 
ADCP,ioos:station:wmo:42361:1,2013-03-07T02:30:00Z,27.5500,-92.4900,122.0,3.7,28.0,99.0,'11111222,11111222,11144222' 
ADCP,ioos:station:wmo:42361:1,2013-03-07T03:30:00Z,27.5500,-92.4900,122.0,4.4,34.0,99.0,'11111222,11111222,11144222' 
ADCP,ioos:station:wmo:42361:1,2013-03-07T04:30:00Z,27.5500,-92.4900,122.0,4.5,40.0,99.0,'11111222,11111222,11144222' 
ADCP,ioos:station:wmo:42361:1,2013-03-07T05:30:00Z,27.5500,-92.4900,122.0,4.2,45.0,99.0,'11111222,11111222,11144222' 
ADCP,ioos:station:wmo:42361:1,2013-03-07T06:30:00Z,27.5500,-92.4900,122.0,4.1,71.0,99.0,'11111222,11111222,11144222' 
ADCP,ioos:station:wmo:42361:1,2013-03-07T07:30:00Z,27.5500,-92.4900,122.0,3.7,96.0,99.0,'11111222,11111222,11144222' 
ADCP,ioos:station:wmo:42361:1,2013-03-07T08:30:00Z,27.5500,-92.4900,122.0,1.5,55.0,99.0,'11111222,11111222,11144222' 
ADCP,ioos:station:wmo:42361:1,2013-03-07T09:30:00Z,27.5500,-92.4900,122.0,2.2,33.0,99.0,'11111222,11111222,11144222' 
ADCP,ioos:station:wmo:42361:1,2013-03-07T10:30:00Z,27.5500,-92.4900,122.0,2.4,44.0,99.0,'11111222,11111222,11144222' 
ADCP,ioos:station:wmo:42361:1,2013-03-07T11:30:00Z,27.5500,-92.4900,122.0,3.5,64.0,99.0,'11111222,11111222,11144222' 
ADCP,ioos:station:wmo:42361:1,2013-03-07T12:30:00Z,27.5500,-92.4900,122.0,3.4,77.0,99.0,'11111222,11111222,11144222' 
ADCP,ioos:station:wmo:42361:1,2013-03-07T13:30:00Z,27.5500,-92.4900,122.0,4.7,84.0,99.0,'11111222,11111222,11144222' 
ADCP,ioos:station:wmo:42361:1,2013-03-07T14:30:00Z,27.5500,-92.4900,122.0,4.5,94.0,99.0,'11111222,11111222,11144222' 
ADCP,ioos:station:wmo:42361:1,2013-03-07T15:30:00Z,27.5500,-92.4900,122.0,4.1,91.0,99.0,'11111222,11111222,11144222' 
ADCP,ioos:station:wmo:42361:1,2013-03-07T16:30:00Z,27.5500,-92.4900,122.0,4.0,87.0,99.0,'11111222,11111222,11144222' 
ADCP,ioos:station:wmo:42361:1,2013-03-07T17:30:00Z,27.5500,-92.4900,122.0,4.5,95.0,99.0,'11111222,11111222,11144222' 
ADCP,ioos:station:wmo:42361:1,2013-03-07T18:30:00Z,27.5500,-92.4900,122.0,4.6,95.0,99.0,'11111222,11111222,11144222' 
ADCP,ioos:station:wmo:42361:1,2013-03-07T19:30:00Z,27.5500,-92.4900,122.0,4.5,105.0,99.0,'11111222,11111222,11144222' 
ADCP,ioos:station:wmo:42361:1,2013-03-07T20:30:00Z,27.5500,-92.4900,122.0,4.4,106.0,99.0,'11111222,11111222,11144222' 
ADCP,ioos:station:wmo:42361:1,2013-03-07T21:30:00Z,27.5500,-92.4900,122.0,4.6,110.0,99.0,'11111222,11111222,11144222' 
ADCP,ioos:station:wmo:42361:1,2013-03-07T22:30:00Z,27.5500,-92.4900,122.0,5.2,108.0,99.0,'11111222,11111222,11144222' 
ADCP,ioos:station:wmo:42361:1,2013-03-07T23:30:00Z,27.5500,-92.4900,122.0,5.8,109.0,99.0,'11111222,11111222,11144222' 
ADCP,ioos:station:wmo:42361:1,2013-03-08T00:30:00Z,27.5500,-92.4900,122.0,6.1,113.0,99.0,'11111222,11111222,11144222' 
ADCP,ioos:station:wmo:42361:1,2013-03-08T01:30:00Z,27.5500,-92.4900,122.0,6.4,113.0,99.0,'11111222,11111222,11144222' 
ADCP,ioos:station:wmo:42361:1,2013-03-08T02:30:00Z,27.5500,-92.4900,122.0,7.1,112.0,99.0,'11111222,11111222,11144222' 
ADCP,ioos:station:wmo:42361:1,2013-03-08T03:30:00Z,27.5500,-92.4900,122.0,6.4,117.0,99.0,'11111222,11111222,11144222' 
ADCP,ioos:station:wmo:42361:1,2013-03-08T04:30:00Z,27.5500,-92.4900,122.0,6.4,130.0,99.0,'11111222,11111222,11144222' 
ADCP,ioos:station:wmo:42361:1,2013-03-08T05:30:00Z,27.5500,-92.4900,122.0,6.2,123.0,99.0,'11111222,11111222,11144222' 
ADCP,ioos:station:wmo:42361:1,2013-03-08T06:30:00Z,27.5500,-92.4900,122.0,6.7,131.0,99.0,'11111222,11111222,11144222' 
ADCP,ioos:station:wmo:42361:1,2013-03-08T07:30:00Z,27.5500,-92.4900,122.0,7.3,138.0,99.0,'11111222,11111222,11144222' 
ADCP,ioos:station:wmo:42361:1,2013-03-08T08:30:00Z,27.5500,-92.4900,122.0,6.9,143.0,99.0,'11111222,11111222,11144222' 
ADCP,ioos:station:wmo:42361:1,2013-03-08T09:30:00Z,27.5500,-92.4900,122.0,7.1,140.0,99.0,'11111222,11111222,11144222' 
ADCP,ioos:station:wmo:42361:1,2013-03-08T10:30:00Z,27.5500,-92.4900,122.0,6.7,137.0,99.0,'11111222,11111222,11144222' 
ADCP,ioos:station:wmo:42361:1,2013-03-08T11:30:00Z,27.5500,-92.4900,122.0,5.8,138.0,99.0,'11111222,11111222,11144222' 
ADCP,ioos:station:wmo:42361:1,2013-03-08T12:30:00Z,27.5500,-92.4900,122.0,6.0,142.0,99.0,'11111222,11111222,11144222' 
ADCP,ioos:station:wmo:42361:1,2013-03-08T13:30:00Z,27.5500,-92.4900,122.0,6.0,140.0,99.0,'11111222,11111222,11144222' 
ADCP,ioos:station:wmo:42361:1,2013-03-08T14:30:00Z,27.5500,-92.4900,122.0,5.8,139.0,99.0,'11111222,11111222,11144222' 
ADCP,ioos:station:wmo:42361:1,2013-03-08T15:30:00Z,27.5500,-92.4900,122.0,6.1,134.0,99.0,'11111222,11111222,11144222' 
ADCP,ioos:station:wmo:42361:1,2013-03-08T16:30:00Z,27.5500,-92.4900,122.0,5.3,127.0,99.0,'11111222,11111222,11144222' 
ADCP,ioos:station:wmo:42361:1,2013-03-08T17:30:00Z,27.5500,-92.4900,122.0,5.5,119.0,99.0,'11111222,11111222,11144222' 
ADCP,ioos:station:wmo:42361:1,2013-03-08T18:30:00Z,27.5500,-92.4900,122.0,5.8,125.0,99.0,'11111222,11111222,11144222' 
ADCP,ioos:station:wmo:42361:1,2013-03-08T19:30:00Z,27.5500,-92.4900,122.0,5.8,117.0,99.0,'11111222,11111222,11144222' 
ADCP,ioos:station:wmo:42361:1,2013-03-08T20:30:00Z,27.5500,-92.4900,122.0,5.4,103.0,99.0,'11111222,11111222,11144222' 
ADCP,ioos:station:wmo:42361:1,2013-03-08T21:30:00Z,27.5500,-92.4900,122.0,7.4,108.0,99.0,'11111222,11111222,11144222' 
ADCP,ioos:station:wmo:42361:1,2013-03-08T22:30:00Z,27.5500,-92.4900,122.0,8.1,107.0,99.0,'11111222,11111222,11144222' 
ADCP,ioos:station:wmo:42361:1,2013-03-08T23:30:00Z,27.5500,-92.4900,122.0,8.9,107.0,99.0,'11111222,11111222,11144222' 
ADCP,ioos:station:wmo:42361:1,2013-03-09T00:30:00Z,27.5500,-92.4900,122.0,8.2,113.0,99.0,'11111222,11111222,11144222' 
ADCP,ioos:station:wmo:42361:1,2013-03-09T01:30:00Z,27.5500,-92.4900,122.0,7.9,125.0,99.0,'11111222,11111222,11144222' 
ADCP,ioos:station:wmo:42361:1,2013-03-09T02:30:00Z,27.5500,-92.4900,122.0,8.3,119.0,99.0,'11111222,11111222,11144222' 
ADCP,ioos:station:wmo:42361:1,2013-03-09T03:30:00Z,27.5500,-92.4900,122.0,7.9,120.0,99.0,'11111222,11111222,11144222' 
ADCP,ioos:station:wmo:42361:1,2013-03-09T04:30:00Z,27.5500,-92.4900,122.0,8.3,118.0,99.0,'11111222,11111222,11144222' 
ADCP,ioos:station:wmo:42361:1,2013-03-09T05:30:00Z,27.5500,-92.4900,122.0,12.0,122.0,99.0,'11111222,11111222,11144222' 
ADCP,ioos:station:wmo:42361:1,2013-03-09T06:30:00Z,27.5500,-92.4900,122.0,10.3,133.0,99.0,'11111222,11111222,11144222' 
ADCP,ioos:station:wmo:42361:1,2013-03-09T07:30:00Z,27.5500,-92.4900,122.0,10.7,135.0,99.0,'11111222,11111222,11144222' 
ADCP,ioos:station:wmo:42361:1,2013-03-09T08:30:00Z,27.5500,-92.4900,122.0,10.1,146.0,99.0,'11111222,11111222,11144222' 
ADCP,ioos:station:wmo:42361:1,2013-03-09T09:30:00Z,27.5500,-92.4900,122.0,10.2,154.0,99.0,'11111222,11111222,11144222' 
ADCP,ioos:station:wmo:42361:1,2013-03-09T10:30:00Z,27.5500,-92.4900,122.0,9.9,159.0,99.0,'11111222,11111222,11144222' 
ADCP,ioos:station:wmo:42361:1,2013-03-09T11:30:00Z,27.5500,-92.4900,122.0,8.6,149.0,99.0,'11111222,11111222,11144222' 
ADCP,ioos:station:wmo:42361:1,2013-03-09T12:30:00Z,27.5500,-92.4900,122.0,10.2,163.0,99.0,'11111222,11111222,11144222' 
ADCP,ioos:station:wmo:42361:1,2013-03-09T13:30:00Z,27.5500,-92.4900,122.0,9.0,169.0,99.0,'11111222,11111222,11144222' 
ADCP,ioos:station:wmo:42361:1,2013-03-09T14:30:00Z,27.5500,-92.4900,122.0,9.3,163.0,99.0,'11111222,11111222,11144222' 
ADCP,ioos:station:wmo:42361:1,2013-03-09T15:30:00Z,27.5500,-92.4900,122.0,9.3,160.0,99.0,'11111222,11111222,11144222' 
ADCP,ioos:station:wmo:42361:1,2013-03-09T16:30:00Z,27.5500,-92.4900,122.0,8.5,169.0,99.0,'11111222,11111222,11144222' 
ADCP,ioos:station:wmo:42361:1,2013-03-09T17:30:00Z,27.5500,-92.4900,122.0,8.7,158.0,99.0,'11111222,11111222,11144222' 
ADCP,ioos:station:wmo:42361:1,2013-03-09T18:30:00Z,27.5500,-92.4900,122.0,9.6,158.0,99.0,'11111222,11111222,11144222' 
ADCP,ioos:station:wmo:42361:1,2013-03-09T19:30:00Z,27.5500,-92.4900,122.0,9.6,151.0,99.0,'11111222,11111222,11144222' 
ADCP,ioos:station:wmo:42361:1,2013-03-09T20:30:00Z,27.5500,-92.4900,122.0,9.6,150.0,99.0,'11111222,11111222,11144222' 
ADCP,ioos:station:wmo:42361:1,2013-03-09T21:30:00Z,27.5500,-92.4900,122.0,10.4,143.0,99.0,'11111222,11111222,11144222' 
ADCP,ioos:station:wmo:42361:1,2013-03-09T22:30:00Z,27.5500,-92.4900,122.0,12.0,140.0,99.0,'11111222,11111222,11144222' 
ADCP,ioos:station:wmo:42361:1,2013-03-09T23:30:00Z,27.5500,-92.4900,122.0,13.5,140.0,99.0,'11111222,11111222,11144222' 
ADCP,ioos:station:wmo:42361:1,2013-03-10T00:30:00Z,27.5500,-92.4900,122.0,13.8,140.0,99.0,'11111222,11111222,11144222' 
ADCP,ioos:station:wmo:42361:1,2013-03-10T01:30:00Z,27.5500,-92.4900,122.0,14.4,142.0,99.0,'11111222,11111222,11144222' 
ADCP,ioos:station:wmo:42361:1,2013-03-10T02:30:00Z,27.5500,-92.4900,122.0,14.5,150.0,99.0,'11111222,11111222,11144222' 
ADCP,ioos:station:wmo:42361:1,2013-03-10T03:30:00Z,27.5500,-92.4900,122.0,15.0,150.0,99.0,'11111222,11111222,11144222' 
ADCP,ioos:station:wmo:42361:1,2013-03-10T04:30:00Z,27.5500,-92.4900,122.0,15.5,154.0,99.0,'11111222,11111222,11144222' 
ADCP,ioos:station:wmo:42361:1,2013-03-10T05:30:00Z,27.5500,-92.4900,122.0,15.7,160.0,99.0,'11111222,11111222,11144222' 
ADCP,ioos:station:wmo:42361:1,2013-03-10T06:30:00Z,27.5500,-92.4900,122.0,17.2,160.0,99.0,'11111222,11111222,11144222' 
ADCP,ioos:station:wmo:42361:1,2013-03-10T07:30:00Z,27.5500,-92.4900,122.0,17.2,159.0,99.0,'11111222,11111222,11144222' 
ADCP,ioos:station:wmo:42361:1,2013-03-10T08:30:00Z,27.5500,-92.4900,122.0,18.8,160.0,99.0,'11111222,11111222,11144222' 
ADCP,ioos:station:wmo:42361:1,2013-03-10T09:30:00Z,27.5500,-92.4900,122.0,17.4,160.0,99.0,'11111222,11111222,11144222' 